EW3182 Weather Reports


Display with metric or nautical units.
time (UTC)temp
F
wind
direction
speed
MPH
gust
MPH
rain 1hr
in
rain 24hr
in
rain mn
in
humidity
%
barometer
mb
20260506073033 60 20 0.0 2.0 0.00 0.00 0.00 77 1008.3
20260506071530 60 103 0.0 2.0 0.00 0.00 0.00 78 1008.5
20260506061527 61 107 0.0 1.0 0.00 0.00 0.00 78 1008.3
20260506044514 63 57 0.0 2.0 0.00 0.00 0.00 76 1008.2
20260506043009 64 123 0.0 1.0 0.00 0.00 0.00 76 1008.2
20260506041506 65 284 0.0 2.0 0.00 0.00 0.00 76 1008.2
20260506040006 65 155 0.0 0.0 0.00 0.00 0.00 76 1008.1
20260506034605 66 289 0.0 1.0 0.00 0.00 0.00 75 1007.5
20260506034502 66 315 0.0 1.0 0.00 0.00 0.00 75 1007.5
20260506033119 66 120 0.0 2.0 0.00 0.00 0.00 75 1007.2
20260506031554 67 143 0.0 1.0 0.00 0.00 0.00 75 1007.0
20260506030100 68 320 0.0 1.0 0.00 0.00 0.00 74 1006.9
20260506024603 68 324 0.0 1.0 0.00 0.00 0.00 73 1006.6
20260506023046 68 309 0.0 3.0 0.00 0.00 0.00 72 1006.3
20260506021552 69 290 0.0 1.0 0.00 0.00 0.00 71 1005.8
20260506020041 69 218 0.0 1.0 0.00 0.00 0.00 71 1005.6
20260506014537 70 346 0.0 1.0 0.00 0.00 0.00 71 1005.0
20260506013043 71 93 0.0 0.0 0.00 0.00 0.00 70 1004.8
20260506011559 72 129 0.0 0.0 0.00 0.00 0.00 70 1004.5
20260506010034 72 304 0.0 1.0 0.00 0.00 0.00 68 1004.7
20260506004541 73 188 0.0 0.0 0.00 0.00 0.00 67 1004.3
20260506003031 75 122 0.0 2.0 0.00 0.00 0.00 67 1003.9
20260506001532 76 301 0.0 1.0 0.00 0.00 0.00 65 1003.5
20260506000029 78 306 0.0 1.0 0.00 0.00 0.00 63 1003.5
20260505234530 79 290 0.0 3.0 0.00 0.00 0.00 64 1003.1
20260505233033 80 302 0.0 2.0 0.00 0.00 0.00 60 1002.9
20260505231536 82 295 0.0 1.0 0.00 0.00 0.00 59 1002.8
20260505230028 83 308 0.0 2.0 0.00 0.00 0.00 59 1002.8
20260505224525 84 304 0.0 1.0 0.00 0.00 0.00 54 1002.2
20260505223023 85 340 0.0 1.0 0.00 0.00 0.00 51 1002.3
20260505221522 88 121 0.0 1.0 0.00 0.00 0.00 51 1002.1
20260505220042 90 13 0.0 1.0 0.00 0.00 0.00 48 1001.8
20260505214528 91 105 0.0 2.0 0.00 0.00 0.00 46 1001.9
20260505213021 92 173 0.0 4.0 0.00 0.00 0.00 47 1001.9
20260505211517 92 241 0.0 2.0 0.00 0.00 0.00 49 1002.1
20260505210015 92 307 0.0 2.0 0.00 0.00 0.00 48 1002.3
20260505204512 91 260 0.0 5.0 0.00 0.00 0.00 50 1002.4
20260505203012 91 194 0.0 3.0 0.00 0.00 0.00 52 1002.5
20260505201507 90 257 0.0 4.0 0.00 0.00 0.00 54 1002.8
20260505200006 90 139 1.0 5.0 0.00 0.00 0.00 55 1002.9
20260505194501 89 113 0.0 6.0 0.00 0.00 0.00 58 1003.1
20260505193100 88 215 2.0 7.0 0.00 0.00 0.00 55 1003.0
20260505191558 88 276 0.0 6.0 0.00 0.00 0.00 60 1002.9
20260505190053 86 218 0.0 4.0 0.00 0.00 0.00 61 1003.1
20260505184553 84 293 1.0 5.0 0.00 0.00 0.00 64 1003.3
20260505183052 84 211 2.0 8.0 0.00 0.00 0.00 63 1003.3
20260505181544 83 208 1.0 6.0 0.00 0.00 0.00 66 1003.3
20260505180042 82 91 1.0 9.0 0.00 0.00 0.00 67 1003.4
20260505174542 82 241 2.0 7.0 0.00 0.00 0.00 67 1003.4
20260505173039 82 259 1.0 7.0 0.00 0.00 0.00 67 1003.5
20260505171537 81 194 1.0 8.0 0.00 0.00 0.00 68 1003.6
20260505170036 81 174 2.0 11.0 0.00 0.00 0.00 68 1003.5
20260505164552 81 276 2.0 7.0 0.00 0.00 0.00 69 1003.6
20260505163036 80 207 0.0 8.0 0.00 0.00 0.00 71 1003.4
20260505161537 80 153 2.0 10.0 0.00 0.00 0.00 71 1003.5
20260505153021 76 257 1.0 11.0 0.00 0.00 0.00 77 1003.2
20260505151519 76 259 3.0 9.0 0.00 0.00 0.00 77 1003.4
20260505124508 70 281 2.0 8.0 0.00 0.00 0.00 80 1002.8
20260505123011 70 236 2.0 7.0 0.00 0.00 0.00 80 1002.7
20260505121505 0 0.0 0.0 0.00 0.00 0.00 1002.4
20260505120000 0 0.0 0.0 0.00 0.00 0.00 1002.2
20260505114557 0 0.0 0.0 0.00 0.00 0.00 1002.3
20260505113111 0 0.0 0.0 0.00 0.00 0.00 1002.0
20260505111548 0 0.0 0.0 0.00 0.00 0.00 1002.1
20260505101530 0 0.0 0.0 0.00 0.00 0.00 1002.2
20260505100026 0 0.0 0.0 0.00 0.00 0.00 1002.2
20260505094521 0 0.0 0.0 0.00 0.00 0.00 1002.1
20260505093018 0 0.0 0.0 0.00 0.00 0.00 1002.4
20260505091515 71 294 4.0 11.0 0.00 0.00 0.00 80 1002.6
20260505090012 71 273 2.0 10.0 0.00 0.00 0.00 80 1002.6
20260505084532 71 199 0.0 7.0 0.00 0.00 0.00 80 1002.6
20260505083009 71 289 2.0 9.0 0.00 0.00 0.00 80 1002.7
20260505081515 71 315 1.0 8.0 0.00 0.00 0.00 80 1002.7